Weather History for North Platte, NE

Change the Weather History Date:

Thursday, November 3, 2011

  Actual Average Record
Temperature  
Mean Temperature 32 °F 42 °F  
Max Temperature 52 °F 57 °F 81 °F (1915)
Min Temperature 12 °F 27 °F -6 °F (1991)
Degree Days  
Heating Degree Days 33 23  
Month to date heating degree days 88 68  
Since 1 July heating degree days 673 737  
Cooling Degree Days 0 0  
Month to date cooling degree days 0 0  
Year to date cooling degree days 921 768  
Moisture  
Dew Point 17 °F    
Average Humidity 59    
Maximum Humidity 92    
Minimum Humidity 26    
Precipitation  
Precipitation 0.00 in 0.03 in 0.57 in (1947)
Month to date precipitation 0.08 0.09  
Year to date precipitation 23.35 19.27  
Snow  
Snow 0.00 in 0.20 in 4.60 in (1990)
Month to date snowfall 0.5 0.4  
Since 1 July snowfall 0.5 2.7  
Since 1 September snowfall 0.5 2.7  
Snow Depth 0.00 in    
Sea Level Pressure  
Sea Level Pressure 30.35 in    
Wind  
Wind Speed 7 mph (SW)    
Max Wind Speed 16 mph    
Max Gust Speed 21 mph    
Visibility 10 miles    
Events      
T = Trace of Precipitation, MM = Missing Value Source: NWS Daily Summary

Daily Weather History Graph

Daily Weather History Graph

Search for Another Location

Airport:

Trip Planner

Search our weather history database for the weather conditions in past years. The results will help you decide how hot, cold, wet, or windy it might be!

Date:

Astronomy

Nov. 03, 2011 Rise Set
Actual Time 8:15 AM CDT 6:36 PM CDT
Civil Twilight 7:47 AM CDT 7:04 PM CDT
Nautical Twilight 7:14 AM CDT 7:37 PM CDT
Astronomical Twilight 6:42 AM CDT 8:09 PM CDT
Moon 3:03 PM CDT (11/3) 1:26 AM CDT (11/3)
Length of Visible Light 11h 17m
Length of Day
10h 20m
First Quarter, 60% of the Moon is Illuminated
Nov 3
First Quarter
Nov 10
Full
Nov 18
Last Quarter
Nov 25
New
Dec 2
First Quarter

Hourly Weather History & Observations

Time (CDT) Temp. Windchill Dew Point Humidity Pressure Visibility Wind Dir Wind Speed Gust Speed Precip Events Conditions
12:53 AM 19.0 °F 11.1 °F 16.0 °F 88% 30.47 in 10.0 mi West 5.8 mph - N/A   Clear
1:53 AM 19.9 °F 12.1 °F 17.1 °F 89% 30.47 in 10.0 mi West 5.8 mph - N/A   Clear
2:53 AM 16.0 °F 6.3 °F 12.9 °F 88% 30.47 in 10.0 mi NW 6.9 mph - N/A   Clear
3:53 AM 17.1 °F 7.6 °F 14.0 °F 88% 30.46 in 10.0 mi NW 6.9 mph - N/A   Clear
4:53 AM 15.1 °F 5.2 °F 12.9 °F 91% 30.46 in 10.0 mi NW 6.9 mph - N/A   Clear
5:53 AM 12.9 °F 3.8 °F 10.9 °F 92% 30.46 in 10.0 mi NW 5.8 mph - N/A   Clear
6:53 AM 12.9 °F 6.9 °F 10.9 °F 92% 30.47 in 10.0 mi WNW 3.5 mph - N/A   Clear
7:53 AM 12.9 °F 5.2 °F 10.0 °F 88% 30.46 in 10.0 mi NW 4.6 mph - N/A   Clear
8:53 AM 18.0 °F 12.7 °F 14.0 °F 84% 30.47 in 10.0 mi WSW 3.5 mph - N/A   Clear
9:53 AM 23.0 °F 17.0 °F 19.0 °F 85% 30.46 in 10.0 mi West 4.6 mph - N/A   Clear
10:53 AM 30.0 °F 26.5 °F 23.0 °F 75% 30.43 in 10.0 mi West 3.5 mph - N/A   Clear
11:53 AM 36.0 °F - 26.1 °F 67% 30.39 in 10.0 mi Calm Calm - N/A   Clear
12:53 PM 46.9 °F - 19.9 °F 34% 30.35 in 10.0 mi SSW 12.7 mph - N/A   Clear
1:53 PM 50.0 °F - 18.0 °F 28% 30.31 in 10.0 mi SW 11.5 mph - N/A   Clear
2:53 PM 51.1 °F - 18.0 °F 27% 30.29 in 10.0 mi SSW 10.4 mph - N/A   Clear
3:53 PM 51.1 °F - 18.0 °F 27% 30.27 in 10.0 mi South 10.4 mph 18.4 mph N/A   Clear
4:53 PM 48.2 °F - 17.6 °F 30% 30.19 in 10.0 mi South 13.8 mph 18.4 mph N/A   Clear
5:53 PM 46.0 °F 41.0 °F 18.0 °F 33% 30.25 in 10.0 mi South 10.4 mph - N/A   Clear
6:53 PM 39.0 °F 34.0 °F 18.0 °F 43% 30.26 in 10.0 mi SSE 6.9 mph - N/A   Clear
7:53 PM 37.0 °F 30.4 °F 17.1 °F 44% 30.26 in 10.0 mi SSE 9.2 mph - N/A   Clear
8:53 PM 35.6 °F 29.2 °F 19.4 °F 52% 30.14 in 10.0 mi SSE 8.1 mph - N/A   Clear
9:53 PM 32.0 °F 25.6 °F 19.0 °F 59% 30.22 in 10.0 mi SE 6.9 mph - N/A   Clear
10:53 PM 28.9 °F 21.9 °F 19.9 °F 69% 30.21 in 10.0 mi ESE 6.9 mph - N/A   Clear
11:53 PM 28.9 °F - 19.0 °F 67% 30.20 in 10.0 mi Calm Calm - N/A   Clear